Time,TemperatureF,DewpointF,PressureIn,WindDirection,WindDirectionDegrees,WindSpeedMPH,WindSpeedGustMPH,Humidity,HourlyPrecipIn,Conditions,Clouds,dailyrainin,SolarRadiationWatts/m^2,SoftwareType,DateUTC
2013-05-17 00:22:00,43.0,28.0,-100.00,East,81,10.0,15.0,55,0.00,,,0.01,0.000000,,2013-05-17 06:22:00,
2013-05-17 00:32:00,43.0,28.0,-100.00,East,81,10.0,15.0,55,0.00,,,0.01,0.000000,,2013-05-17 06:32:00,
2013-05-17 00:42:00,43.0,28.0,-100.00,East,81,10.0,15.0,55,0.00,,,0.01,0.000000,,2013-05-17 06:42:00,
2013-05-17 00:52:00,43.0,28.0,-100.00,East,81,10.0,15.0,55,0.00,,,0.01,0.000000,,2013-05-17 06:52:00,
2013-05-17 01:21:00,41.0,28.0,-100.00,East,82,11.0,16.0,59,0.00,,,0.01,0.000000,,2013-05-17 07:21:00,
2013-05-17 01:32:00,41.0,28.0,-100.00,East,82,11.0,16.0,59,0.00,,,0.01,0.000000,,2013-05-17 07:32:00,
2013-05-17 01:43:00,41.0,28.0,-100.00,East,82,11.0,16.0,59,0.00,,,0.01,0.000000,,2013-05-17 07:43:00,
2013-05-17 01:53:00,41.0,28.0,-100.00,East,82,11.0,16.0,59,0.00,,,0.01,0.000000,,2013-05-17 07:53:00,
2013-05-17 02:23:00,41.0,28.0,-100.00,East,91,8.0,17.0,59,0.00,,,0.01,0.000000,,2013-05-17 08:23:00,
2013-05-17 02:33:00,41.0,28.0,-100.00,East,91,8.0,17.0,59,0.00,,,0.01,0.000000,,2013-05-17 08:33:00,
2013-05-17 02:42:00,41.0,28.0,-100.00,East,91,8.0,17.0,59,0.00,,,0.01,0.000000,,2013-05-17 08:42:00,
2013-05-17 02:51:00,41.0,28.0,-100.00,East,91,8.0,17.0,59,0.00,,,0.01,0.000000,,2013-05-17 08:51:00,
2013-05-17 03:22:00,42.0,27.0,-100.00,East,92,9.0,15.0,54,0.00,,,0.01,0.000000,,2013-05-17 09:22:00,
2013-05-17 03:33:00,42.0,27.0,-100.00,East,92,9.0,15.0,54,0.00,,,0.01,0.000000,,2013-05-17 09:33:00,
2013-05-17 03:42:00,42.0,27.0,-100.00,East,92,9.0,15.0,54,0.00,,,0.01,0.000000,,2013-05-17 09:42:00,
2013-05-17 03:53:00,42.0,27.0,-100.00,East,92,9.0,15.0,54,0.00,,,0.01,0.000000,,2013-05-17 09:53:00,
2013-05-17 04:23:00,41.0,25.0,-100.00,ENE,69,9.0,17.0,53,0.00,,,0.00,0.000000,,2013-05-17 10:23:00,
2013-05-17 04:33:00,41.0,25.0,-100.00,ENE,69,9.0,17.0,53,0.00,,,0.00,0.000000,,2013-05-17 10:33:00,
2013-05-17 04:42:00,41.0,25.0,-100.00,ENE,69,9.0,17.0,53,0.00,,,0.00,0.000000,,2013-05-17 10:42:00,
2013-05-17 04:53:00,41.0,25.0,-100.00,ENE,69,9.0,17.0,53,0.00,,,0.00,0.000000,,2013-05-17 10:53:00,
2013-05-17 05:23:00,41.0,26.0,-100.00,East,80,8.0,13.0,54,0.00,,,0.00,0.000000,,2013-05-17 11:23:00,
2013-05-17 05:34:00,41.0,26.0,-100.00,East,80,8.0,13.0,54,0.00,,,0.00,0.000000,,2013-05-17 11:34:00,
2013-05-17 05:42:00,41.0,26.0,-100.00,East,80,8.0,13.0,54,0.00,,,0.00,0.000000,,2013-05-17 11:42:00,
2013-05-17 05:53:00,41.0,26.0,-100.00,East,80,8.0,13.0,54,0.00,,,0.00,0.000000,,2013-05-17 11:53:00,
2013-05-17 06:23:00,41.0,25.0,-100.00,ENE,68,7.0,12.0,52,0.00,,,0.00,1.000000,,2013-05-17 12:23:00,
2013-05-17 06:32:00,41.0,25.0,-100.00,ENE,68,7.0,12.0,52,0.00,,,0.00,1.000000,,2013-05-17 12:32:00,
2013-05-17 06:43:00,41.0,25.0,-100.00,ENE,68,7.0,12.0,52,0.00,,,0.00,1.000000,,2013-05-17 12:43:00,
2013-05-17 06:53:00,41.0,25.0,-100.00,ENE,68,7.0,12.0,52,0.00,,,0.00,1.000000,,2013-05-17 12:53:00,
2013-05-17 07:23:00,42.0,24.0,-100.00,East,82,6.0,14.0,48,0.00,,,0.00,46.000000,,2013-05-17 13:23:00,
2013-05-17 07:33:00,42.0,24.0,-100.00,East,82,6.0,14.0,48,0.00,,,0.00,46.000000,,2013-05-17 13:33:00,
2013-05-17 07:42:00,42.0,24.0,-100.00,East,82,6.0,14.0,48,0.00,,,0.00,46.000000,,2013-05-17 13:42:00,
2013-05-17 07:52:00,42.0,24.0,-100.00,East,82,6.0,14.0,48,0.00,,,0.00,46.000000,,2013-05-17 13:52:00,
2013-05-17 08:22:00,50.0,28.0,-100.00,East,97,5.0,10.0,42,0.00,,,0.00,241.000000,,2013-05-17 14:22:00,
2013-05-17 08:43:00,50.0,28.0,-100.00,East,97,5.0,10.0,42,0.00,,,0.00,241.000000,,2013-05-17 14:43:00,
2013-05-17 08:53:00,50.0,28.0,-100.00,East,97,5.0,10.0,42,0.00,,,0.00,241.000000,,2013-05-17 14:53:00,
2013-05-17 08:56:00,58.0,21.0,-100.00,ESE,111,4.0,7.0,24,0.00,,,0.00,435.000000,,2013-05-17 14:56:00,
2013-05-17 09:25:00,58.0,21.0,-100.00,ESE,111,4.0,7.0,24,0.00,,,0.00,435.000000,,2013-05-17 15:25:00,
2013-05-17 09:47:00,58.0,21.0,-100.00,ESE,111,4.0,7.0,24,0.00,,,0.00,435.000000,,2013-05-17 15:47:00,
2013-05-17 09:56:00,60.0,19.0,-100.00,West,266,7.0,11.0,20,0.00,,,0.00,633.000000,,2013-05-17 15:56:00,
2013-05-17 10:26:00,60.0,19.0,-100.00,West,266,7.0,11.0,20,0.00,,,0.00,633.000000,,2013-05-17 16:26:00,
2013-05-17 10:37:00,60.0,19.0,-100.00,West,266,7.0,11.0,20,0.00,,,0.00,633.000000,,2013-05-17 16:37:00,
2013-05-17 10:49:00,60.0,19.0,-100.00,West,266,7.0,11.0,20,0.00,,,0.00,633.000000,,2013-05-17 16:49:00,
2013-05-17 10:56:00,62.0,18.0,-100.00,WSW,257,9.0,18.0,18,0.00,,,0.00,801.000000,,2013-05-17 16:56:00,
2013-05-17 11:30:00,62.0,18.0,-100.00,WSW,257,9.0,18.0,18,0.00,,,0.00,801.000000,,2013-05-17 17:30:00,
2013-05-17 11:40:00,62.0,-99.9,-100.00,WSW,257,9.0,18.0,18,0.00,,,0.00,801.000000,,2013-05-17 17:40:00,
2013-05-17 11:49:00,62.0,18.0,-100.00,WSW,257,9.0,18.0,18,0.00,,,0.00,801.000000,,2013-05-17 17:49:00,
2013-05-17 11:56:00,64.0,12.0,-100.00,West,260,10.0,22.0,13,0.00,,,0.00,939.000000,,2013-05-17 17:56:00,
2013-05-17 12:30:00,64.0,12.0,-100.00,West,260,10.0,22.0,13,0.00,,,0.00,939.000000,,2013-05-17 18:30:00,
2013-05-17 12:40:00,64.0,-99.9,-100.00,West,260,10.0,22.0,13,0.00,,,0.00,939.000000,,2013-05-17 18:40:00,
2013-05-17 12:50:00,-999.0,-99.9,-100.00,West,260,10.0,22.0,13,0.00,,,0.00,939.000000,,2013-05-17 18:50:00,
2013-05-17 12:56:00,65.0,-99.9,-100.00,WSW,248,11.0,24.0,12,0.00,,,0.00,1010.000000,,2013-05-17 18:56:00,
2013-05-17 13:30:00,65.0,11.0,-100.00,WSW,248,11.0,24.0,12,0.00,,,0.00,1010.000000,,2013-05-17 19:30:00,
2013-05-17 13:40:00,65.0,11.0,-100.00,WSW,248,11.0,24.0,12,0.00,,,0.00,1010.000000,,2013-05-17 19:40:00,
2013-05-17 13:50:00,65.0,11.0,-100.00,WSW,248,11.0,24.0,12,0.00,,,0.00,1010.000000,,2013-05-17 19:50:00,
2013-05-17 14:30:00,66.0,3.0,-100.00,WSW,251,15.0,28.0,8,0.00,,,0.00,1042.000000,,2013-05-17 20:30:00,
2013-05-17 14:40:00,66.0,3.0,-100.00,WSW,251,15.0,28.0,8,0.00,,,0.00,1042.000000,,2013-05-17 20:40:00,
2013-05-17 15:26:00,67.0,4.0,-100.00,WSW,253,14.0,29.0,8,0.00,,,0.00,1014.000000,,2013-05-17 21:26:00,
2013-05-17 15:39:00,67.0,4.0,-100.00,WSW,253,14.0,29.0,8,0.00,,,0.00,1014.000000,,2013-05-17 21:39:00,
2013-05-17 16:28:00,66.0,6.0,-100.00,West,263,14.0,30.0,9,0.00,,,0.00,858.000000,,2013-05-17 22:28:00,
2013-05-17 16:38:00,66.0,6.0,-100.00,West,263,14.0,30.0,9,0.00,,,0.00,858.000000,,2013-05-17 22:38:00,
2013-05-17 17:23:00,62.0,9.0,-100.00,West,270,14.0,22.0,12,0.00,,,0.00,515.000000,,2013-05-17 23:23:00,
2013-05-17 17:37:00,62.0,9.0,-100.00,West,270,14.0,22.0,12,0.00,,,0.00,515.000000,,2013-05-17 23:37:00,
2013-05-17 17:47:00,62.0,9.0,-100.00,West,270,14.0,22.0,12,0.00,,,0.00,515.000000,,2013-05-17 23:47:00,
2013-05-17 17:54:00,62.0,9.0,-100.00,West,270,14.0,22.0,12,0.00,,,0.00,515.000000,,2013-05-17 23:54:00,
2013-05-17 18:22:00,63.0,13.0,-100.00,West,261,14.0,26.0,14,0.00,,,0.00,402.000000,,2013-05-18 00:22:00,
2013-05-17 18:33:00,63.0,13.0,-100.00,West,261,14.0,26.0,14,0.00,,,0.00,402.000000,,2013-05-18 00:33:00,
2013-05-17 18:44:00,63.0,13.0,-100.00,West,261,14.0,26.0,14,0.00,,,0.00,402.000000,,2013-05-18 00:44:00,
2013-05-17 18:54:00,63.0,13.0,-100.00,West,261,14.0,26.0,14,0.00,,,0.00,402.000000,,2013-05-18 00:54:00,
2013-05-17 19:24:00,58.0,12.0,-100.00,West,275,13.0,23.0,16,0.00,,,0.00,243.000000,,2013-05-18 01:24:00,
2013-05-17 19:32:00,58.0,12.0,-100.00,West,275,13.0,23.0,16,0.00,,,0.00,243.000000,,2013-05-18 01:32:00,
2013-05-17 19:43:00,58.0,12.0,-100.00,West,275,13.0,23.0,16,0.00,,,0.00,243.000000,,2013-05-18 01:43:00,
2013-05-17 19:52:00,58.0,12.0,-100.00,West,275,13.0,23.0,16,0.00,,,0.00,243.000000,,2013-05-18 01:52:00,
2013-05-17 20:22:00,54.0,13.0,-100.00,WNW,294,7.0,21.0,19,0.00,,,-99.99,48.000000,,2013-05-18 02:22:00,
2013-05-17 20:31:00,54.0,13.0,-100.00,WNW,294,7.0,21.0,19,0.00,,,-99.99,48.000000,,2013-05-18 02:31:00,
2013-05-17 20:42:00,54.0,13.0,-100.00,WNW,294,7.0,21.0,19,0.00,,,-99.99,48.000000,,2013-05-18 02:42:00,
2013-05-17 20:53:00,54.0,13.0,-100.00,WNW,294,7.0,21.0,19,0.00,,,-99.99,48.000000,,2013-05-18 02:53:00,
2013-05-17 21:22:00,54.0,11.0,-100.00,North,356,3.0,12.0,18,0.00,,,0.00,3.000000,,2013-05-18 03:22:00,
2013-05-17 21:33:00,54.0,11.0,-100.00,North,356,3.0,12.0,18,0.00,,,0.00,3.000000,,2013-05-18 03:33:00,
2013-05-17 21:43:00,54.0,11.0,-100.00,North,356,3.0,12.0,18,0.00,,,0.00,3.000000,,2013-05-18 03:43:00,
2013-05-17 21:53:00,54.0,11.0,-100.00,North,356,3.0,12.0,18,0.00,,,0.00,3.000000,,2013-05-18 03:53:00,
2013-05-17 22:23:00,47.0,16.0,-100.00,ENE,72,5.0,8.0,29,-99.99,,,0.00,0.000000,,2013-05-18 04:23:00,
2013-05-17 22:33:00,47.0,16.0,-100.00,ENE,72,5.0,8.0,29,-99.99,,,0.00,0.000000,,2013-05-18 04:33:00,
2013-05-17 22:42:00,47.0,16.0,-100.00,ENE,72,5.0,8.0,29,-99.99,,,0.00,0.000000,,2013-05-18 04:42:00,
2013-05-17 22:52:00,47.0,16.0,-100.00,ENE,72,5.0,8.0,29,-99.99,,,0.00,0.000000,,2013-05-18 04:52:00,
2013-05-17 23:22:00,47.0,18.0,-100.00,ENE,62,6.0,9.0,31,0.00,,,0.00,0.000000,,2013-05-18 05:22:00,
2013-05-17 23:32:00,47.0,18.0,-100.00,ENE,62,6.0,9.0,31,0.00,,,0.00,0.000000,,2013-05-18 05:32:00,
2013-05-17 23:42:00,47.0,18.0,-100.00,ENE,62,6.0,9.0,31,0.00,,,0.00,0.000000,,2013-05-18 05:42:00,
2013-05-17 23:52:00,47.0,18.0,-100.00,ENE,62,6.0,9.0,31,0.00,,,0.00,0.000000,,2013-05-18 05:52:00,